ONEWEB-0273 (48991 NORAD) Tracking and Keplerian Element Data

This shows tracking and keplerian element data for the satellite.

Feedback or suggestion? Click here.




ElementValue
Catalog48991
NameONEWEB-0273
Epoch Orbit1388
Epoch Day269.25001157
Epoch Year2021
RAAN211.8751
Inclination87.8797
Eccentricity0.0012165
Argument of Perigee347.9911
Mean Anonmoly13.1021
Mean Motion13.47152254
Decay Rate1.4E-07
L11 48991U 21060AA 21269.25001157 .00000014 00000-0 00000+0 0 9995
L22 48991 87.8797 211.8751 0012165 347.9911 13.1021 13.47152254 13885

Live tracking and technical data element details for ONEWEB-0273 (NORAD 48991). ONEWEB-0273 can be tracked NOW for your location showing map with azimuth and elevation plus other details from your city location.

Track the satellite on the map from your city or location and see movement details for azimuth, elevation, latitude, longitude, range, height, and movement on the map or in text.







IsCatalogInMostPopularTable: catalog: 48991, numindb: 19
Update: records affected: 1



GetName: 48991 ONEWEB-0273

Hit Count: updated at: Sun, 26 Sep 2021 16:32:53 GMT